Tracking 31011 objects as of 12-Jul-2025
HD Live streaming from Space Station
objects crossing your sky now

SL-8 DEB

Track SL-8 DEB now!
10-day predictions


NORAD ID: 25085
Int'l Code: 1991-009CX
Perigee: 1,446.3 km
Apogee: 1,716.4 km
Inclination: 74.1 °
Period: 117.6 minutes
Semi major axis: 7952 km
RCS: 0.0159 m2 (small)
Launch date: February 12, 1991
Source: Commonwealth of Independent States (former USSR) (CIS)
Launch site: PLESETSK MISSILE AND SPACE COMPLEX (PKMTR)

Note: This is SATELLITE DEBRIS
Your satellite tracking list
Your tracking list is empty




NASA's NSSDC Master Catalog

Two Line Element Set (TLE):
1 25085U 91009CX  25189.25448389  .00000574  00000-0  51576-2 0  9999
2 25085  74.1106 283.5822 0169833 256.6781 130.4536 12.24218327368951
Source of the keplerian elements: AFSPC